Location: Unspecified
(40.7945°N, 111.1337°W)
Time: 02:21:08
(UTC-06:00)

ISS - Pass Details

Date: 24 March 2019
Orbit: 408 x 410 km, 51.6° (Epoch: 21 April)

Event Time Altitude Azimuth Distance (km) Brightness Sun altitude
Rises 20:08:13 0° 237° (WSW) 2,319 0.9 -6.0°
Reaches altitude 10° 20:10:18 10° 239° (WSW) 1,461 -0.1 -6.4°
Maximum altitude 20:13:34 73° 324° (NW) 427 -3.6 -7.0°
Drops below altitude 10° 20:16:51 10° 51° (NE) 1,467 -1.4 -7.6°
Enters shadow 20:18:20 - 52° (NE) 2,074 -0.6 -7.9°
